This is the latest recevied weather packets stored in our database for station/object YT1XN-8. If no packets are shown the sender has not sent any weather packets the latest 10 day(s).
| Time | Temp. | Humidity | Pressure | Rain* | Wind** | Luminosity | Snow |
|---|---|---|---|---|---|---|---|
| 1777597122 | 5° C | 66% | 1026.3 hPa | 0 mm | - | - | - |
| 1777596643 | 4.44° C | 66% | 1026.2 hPa | 0 mm | - | - | - |
| 1777596462 | 4.44° C | 66% | 1026.1 hPa | 0 mm | - | - | - |
| 1777596043 | 5° C | 66% | 1026.2 hPa | 0 mm | - | - | - |
| 1777595802 | 5° C | 66% | 1026.3 hPa | 0 mm | - | - | - |
| 1777595444 | 5.56° C | 65% | 1026.3 hPa | 0 mm | - | - | - |
| 1777595142 | 5.56° C | 64% | 1026.1 hPa | 0 mm | - | - | - |
| 1777594843 | 5.56° C | 63% | 1026.1 hPa | 0 mm | - | - | - |
| 1777594482 | 6.11° C | 62% | 1026.1 hPa | 0 mm | - | - | - |
| 1777594245 | 6.11° C | 62% | 1026.1 hPa | 0 mm | - | - | - |
| 1777593822 | 6.11° C | 61% | 1026 hPa | 0 mm | - | - | - |
| 1777593643 | 6.11° C | 60% | 1026 hPa | 0 mm | - | - | - |
| 1777593162 | 6.67° C | 60% | 1026 hPa | 0 mm | - | - | - |
| 1777593043 | 6.67° C | 60% | 1025.9 hPa | 0 mm | - | - | - |
| 1777592502 | 6.67° C | 60% | 1026 hPa | 0 mm | - | - | - |
| 1777592443 | 6.67° C | 60% | 1026 hPa | 0 mm | - | - | - |
| 1777591842 | 6.67° C | 59% | 1026.1 hPa | 0 mm | - | - | - |
| 1777591244 | 7.22° C | 59% | 1026 hPa | 0 mm | - | - | - |
| 1777591182 | 7.22° C | 58% | 1026 hPa | 0 mm | - | - | - |
| 1777590643 | 6.67° C | 58% | 1026.1 hPa | 0 mm | - | - | - |
| 1777590522 | 6.67° C | 59% | 1026.1 hPa | 0 mm | - | - | - |
| 1777590044 | 7.22° C | 58% | 1026.1 hPa | 0 mm | - | - | - |
| 1777589862 | 7.22° C | 58% | 1026.2 hPa | 0 mm | - | - | - |
| 1777589443 | 7.22° C | 57% | 1026.3 hPa | 0 mm | - | - | - |
| 1777589202 | 7.22° C | 57% | 1026.3 hPa | 0 mm | - | - | - |
* Rain latest hour (hover to see other rain measurements)
** Current wind speed in m/s (hover to see current wind gust speed)